sat.trackr.live / text

‹ back to catalog

H2SAT (HEINRICH HERTZ)

NORAD 57213 · 2023-093A

PAYLOAD ACTIVE UNKNOWN

§ Identity

Operator
Country
GER
Launch date
2023-07-05
Launch site
FRGUI
Launch vehicle
Mass (kg)
RCS (m²)

Purposes: comms

External: N2YO · Heavens-Above · Gunter

§ Orbital elements

Epoch: 2026-05-25T03:44:47.244768Z

Period
1,436.09 min
Inclination
0.0144°
Eccentricity
0.0000654
Mean motion
1.00272263 rev/d
Perigee alt
35,783.7 km
Apogee alt
35,789.2 km
Semi-major
42,164.6 km
B*
0.0000e+0
RAAN
254.3907°
Arg perigee
181.7219°
Mean anomaly
223.5176°
Rev number
1,068

§ Raw data

H2SAT (HEINRICH HERTZ)1 57213U 23093A   26145.15610237  .00000000  00000+0  00000+0 0  99962 57213   0.0144 254.3907 0000654 181.7219 223.5176  1.00272263 10687

JSON: /api/v1/satellites/57213 · /tle

For live sub-satellite position, see the globe view (requires WebGL).

§ Visibility from observer

Set your observer location to see the next 7 days of passes ≥ 10°. The values pass through the URL so the page stays shareable.

No JS? Fill the form by hand. The geolocation button needs JavaScript.

§ Radio — SatNOGS DB

ModeDescriptionDownlinkUplink
FM Mode S - Center 2.286 GHz

1 transmitter · refreshed weekly from db.satnogs.org